EW5291 Weather Reports


time (UTC)temp
C
wind
direction
speed
KPH
gust
KPH
rain 1hr
cm
rain 24hr
cm
rain mn
cm
humidity
%
barometer
mb
20260508013004 6 0 0.0 0.0 0.00 0.33 0.00 57 1008.4
20260508013002 6 190 0.0 0.0 0.00 0.38 0.08 57 1009.0
20260508012503 6 0 0.0 0.0 0.00 0.33 0.00 57 1008.3
20260508012004 6 0 0.0 0.0 0.00 0.33 0.00 58 1008.2
20260508011503 6 190 0.0 0.0 0.00 0.38 0.08 55 1008.7
20260508011003 7 0 0.0 0.0 0.00 0.33 0.00 52 1008.0
20260508010503 7 0 0.0 0.0 0.00 0.38 0.00 47 1007.9
20260508010003 7 0 0.0 0.0 0.00 0.38 0.00 47 1007.8
20260508005503 7 0 0.0 0.0 0.00 0.38 0.00 43 1007.8
20260508005003 8 0 0.0 0.0 0.00 0.38 0.00 43 1007.6
20260508004506 8 190 0.0 0.0 0.00 0.38 0.08 42 1008.2
20260508004504 8 0 0.0 0.0 0.00 0.38 0.00 42 1007.6
20260508003503 8 0 0.0 0.0 0.00 0.38 0.00 40 1007.5
20260508003003 9 0 0.0 0.0 0.00 0.38 0.00 39 1007.4
20260508002503 9 0 0.0 0.0 0.00 0.38 0.00 37 1007.4
20260508002004 9 0 0.0 0.0 0.00 0.38 0.00 37 1007.3
20260508001505 9 190 0.0 0.0 0.00 0.38 0.08 37 1007.8
20260508001503 10 0 0.0 0.0 0.00 0.38 0.00 37 1007.2
20260508001003 10 0 0.0 0.0 0.00 0.38 0.00 37 1007.2
20260508000503 10 0 0.0 0.0 0.00 0.38 0.00 36 1007.2
20260508000004 10 190 0.0 0.0 0.00 0.38 0.08 36 1007.8
20260507235003 11 0 0.0 0.0 0.00 0.38 0.00 35 1007.3
20260507234503 11 190 0.0 0.0 0.00 0.38 0.08 35 1007.7
20260507234003 11 191 0.0 1.6 0.00 0.38 0.00 35 1007.0
20260507233503 11 191 0.0 1.6 0.00 0.38 0.00 34 1006.9
20260507233004 11 191 0.0 1.6 0.00 0.38 0.00 33 1006.9
20260507232504 11 0 0.0 0.0 0.00 0.38 0.00 33 1006.8
20260507232003 12 0 0.0 0.0 0.00 0.38 0.00 36 1006.8
20260507231503 12 0 0.0 0.0 0.00 0.38 0.00 33 1006.8
20260507231003 12 0 0.0 0.0 0.00 0.38 0.00 35 1006.9
20260507230503 12 0 0.0 0.0 0.00 0.38 0.00 30 1006.9
20260507230003 12 190 0.0 0.0 0.00 0.43 0.08 27 1007.4
20260507225503 12 191 0.0 1.6 0.00 0.38 0.00 28 1006.9
20260507225004 13 191 0.0 4.8 0.00 0.38 0.00 26 1006.8
20260507224504 13 191 0.0 4.8 0.00 0.38 0.00 29 1006.9
20260507224004 13 0 0.0 0.0 0.00 0.38 0.00 30 1006.8
20260507223005 13 190 0.0 4.8 0.00 0.43 0.08 29 1007.3
20260507222504 13 0 0.0 0.0 0.00 0.38 0.00 28 1006.7
20260507221504 13 0 0.0 0.0 0.00 0.41 0.00 28 1006.6
20260507221502 13 190 0.0 0.0 0.00 0.43 0.08 28 1007.1
20260507220504 13 191 0.0 11.3 0.00 0.41 0.00 31 1006.6
20260507220004 13 0 0.0 0.0 0.00 0.41 0.00 30 1006.5
20260507220002 13 190 0.0 1.6 0.00 0.56 0.08 30 1007.0
20260507215503 14 0 0.0 0.0 0.00 0.43 0.00 27 1006.5
20260507214503 13 190 0.0 3.2 0.00 0.56 0.08 29 1007.0
20260507214004 13 191 0.0 9.7 0.00 0.48 0.00 33 1006.4
20260507213504 13 191 0.0 9.7 0.00 0.48 0.00 30 1006.4
20260507213007 13 190 0.0 1.6 0.00 0.56 0.08 29 1006.8
20260507213004 13 191 0.0 1.6 0.00 0.48 0.00 29 1006.3
20260507212503 13 191 0.0 1.6 0.00 0.51 0.00 28 1006.2
20260507212004 13 0 0.0 0.0 0.00 0.51 0.00 29 1006.2
20260507211504 14 191 0.0 3.2 0.00 0.51 0.00 27 1006.2
20260507211004 14 191 0.0 3.2 0.00 0.51 0.00 29 1006.2
20260507210503 15 191 0.0 6.4 0.00 0.51 0.00 26 1006.2
20260507210007 15 190 0.0 6.4 0.00 0.71 0.08 24 1006.6
20260507210005 15 191 0.0 9.7 0.00 0.51 0.00 24 1006.1
20260507205504 15 191 0.0 9.7 0.00 0.56 0.00 23 1006.1
20260507205003 15 0 0.0 0.0 0.00 0.56 0.00 27 1006.1
20260507204504 15 190 0.0 0.0 0.00 0.71 0.08 26 1006.6
20260507204003 15 191 0.0 11.3 0.00 0.56 0.00 26 1006.0
20260507203504 15 191 0.0 11.3 0.00 0.56 0.00 30 1006.1
20260507203004 15 190 0.0 3.2 0.00 0.56 0.00 27 1006.2
20260507203002 15 190 0.0 3.2 0.00 0.71 0.08 27 1006.7
20260507202503 15 191 0.0 3.2 0.00 0.61 0.00 27 1006.1
20260507201510 15 190 0.0 4.8 0.00 0.71 0.08 30 1006.6
20260507201503 15 191 0.0 8.0 0.00 0.69 0.00 30 1006.1
20260507201003 15 191 0.0 8.0 0.00 0.69 0.00 31 1006.2
20260507200503 15 191 0.0 1.6 0.00 0.71 0.00 30 1006.3
20260507200013 15 190 0.0 3.2 0.00 0.84 0.08 27 1006.8
20260507200003 15 190 0.0 3.2 0.00 0.71 0.00 27 1006.2
20260507195503 16 191 0.0 3.2 0.00 0.71 0.00 27 1006.3
20260507195003 16 0 0.0 0.0 0.00 0.71 0.00 27 1006.4
20260507194503 16 190 0.0 0.0 0.00 0.84 0.08 26 1006.9
20260507194003 17 191 0.0 1.6 0.00 0.74 0.00 27 1006.4
20260507193503 16 191 0.0 17.7 0.00 0.79 0.00 25 1006.5
20260507193009 16 190 0.0 17.7 0.00 0.84 0.08 26 1006.9
20260507192504 16 191 0.0 3.2 0.00 0.81 0.00 26 1006.4
20260507192004 17 191 0.0 3.2 0.00 0.81 0.00 24 1006.3
20260507191506 17 190 0.0 3.2 0.00 0.84 0.08 25 1006.9
20260507191003 17 191 0.0 6.4 0.00 0.81 0.00 25 1006.4
20260507190504 17 191 0.0 6.4 0.00 0.84 0.00 27 1006.5
20260507190004 17 190 0.0 12.9 0.00 0.91 0.08 25 1007.0
20260507185503 17 191 0.0 11.3 0.00 0.84 0.00 28 1006.6
20260507185003 16 191 0.0 9.7 0.00 0.84 0.00 29 1006.6
20260507184503 16 190 0.0 6.4 0.00 0.91 0.08 24 1007.1
20260507183504 17 190 0.0 8.0 0.00 0.86 0.00 26 1006.7
20260507183005 17 190 0.0 8.0 0.00 0.91 0.08 25 1007.1
20260507182504 18 191 0.0 8.0 0.00 0.89 0.00 26 1006.6
20260507182004 18 191 0.0 6.4 0.00 0.89 0.00 30 1006.8
20260507181503 17 191 0.0 6.4 0.00 0.89 0.00 24 1006.9
20260507181003 17 190 0.0 3.2 0.00 0.89 0.00 34 1006.9
20260507180504 17 191 0.0 3.2 0.00 0.91 0.00 25 1007.0
20260507180004 17 190 0.0 6.4 0.00 1.02 0.08 31 1007.7
20260507175503 17 191 0.0 6.4 0.00 0.91 0.00 26 1007.1
20260507175004 17 191 0.0 1.6 0.00 0.91 0.00 29 1007.0
20260507174504 17 0 0.0 0.0 0.00 0.94 0.00 27 1007.1
20260507174003 17 191 0.0 1.6 0.00 0.94 0.00 23 1007.2
20260507173503 17 191 0.0 3.2 0.00 0.97 0.00 24 1007.2
20260507173013 17 190 0.0 3.2 0.00 1.02 0.08 25 1007.8
20260507172503 17 191 0.0 1.6 0.00 0.99 0.00 24 1007.2
20260507172004 17 191 0.0 4.8 0.00 0.99 0.00 30 1007.2
20260507171503 17 191 0.0 4.8 0.00 1.02 0.00 24 1007.2
20260507171003 17 190 0.0 4.8 0.00 1.02 0.00 26 1007.4
20260507170504 17 190 0.0 9.7 0.00 1.02 0.00 24 1007.4
20260507170003 17 190 0.0 9.7 0.00 1.02 0.08 24 1007.8
20260507165504 17 191 0.0 1.6 0.00 1.02 0.00 33 1007.3
20260507165004 17 191 0.0 6.4 0.00 1.02 0.00 25 1007.5
20260507164503 16 190 0.0 6.4 0.00 1.02 0.08 30 1007.9
20260507164003 17 0 0.0 0.0 0.00 1.02 0.00 29 1007.7
20260507163504 17 191 0.0 1.6 0.00 1.02 0.00 30 1007.8
20260507163004 16 190 0.0 3.2 0.00 1.02 0.08 33 1008.4
20260507162503 17 191 0.0 4.8 0.00 1.02 0.00 33 1007.9
20260507162003 16 191 0.0 4.8 0.00 1.02 0.00 29 1008.0
20260507161504 16 191 0.0 3.2 0.00 1.02 0.00 30 1008.0
20260507161502 16 190 0.0 3.2 0.00 1.02 0.08 30 1008.5
20260507160503 16 190 0.0 4.8 0.00 1.02 0.00 34 1008.1
20260507160003 16 190 0.0 6.4 0.00 1.02 0.08 30 1008.7
20260507155503 16 191 0.0 6.4 0.00 1.02 0.00 33 1008.2
20260507155004 16 191 0.0 3.2 0.00 1.02 0.00 35 1008.2
20260507154503 16 190 0.0 3.2 0.00 1.02 0.00 33 1008.2
20260507154003 16 191 0.0 3.2 0.00 1.02 0.00 31 1008.2
20260507153504 16 191 0.0 3.2 0.00 1.02 0.00 30 1008.4
20260507153009 16 190 0.0 3.2 0.00 1.02 0.08 37 1008.9
20260507152503 16 191 0.0 3.2 0.00 1.02 0.00 28 1008.3
20260507151505 15 190 0.0 9.7 0.00 1.02 0.08 32 1008.8
20260507151503 15 191 0.0 9.7 0.00 1.02 0.00 32 1008.3
20260507151003 15 191 0.0 9.7 0.00 1.02 0.00 31 1008.3
20260507150503 15 190 0.0 9.7 0.00 1.02 0.00 32 1008.4
20260507150002 15 190 0.0 9.7 0.00 1.02 0.08 31 1009.1
20260507145503 15 191 0.0 8.0 0.00 1.02 0.00 39 1008.6
20260507145004 15 191 0.0 8.0 0.00 1.02 0.00 38 1008.6
20260507144503 15 191 0.0 4.8 0.00 1.02 0.00 34 1008.6
20260507144003 15 191 0.0 4.8 0.00 1.02 0.00 37 1008.7
20260507143504 15 191 0.0 3.2 0.00 1.02 0.00 33 1008.8
20260507143004 15 191 0.0 4.8 0.00 1.02 0.00 41 1008.6
20260507143002 14 190 0.0 4.8 0.00 1.02 0.08 41 1009.1
20260507142504 14 190 0.0 4.8 0.00 1.02 0.00 40 1008.5
20260507142003 14 191 0.0 9.7 0.00 1.02 0.00 40 1008.6
20260507141504 13 190 0.0 9.7 0.00 1.02 0.08 40 1009.0
20260507141003 14 191 0.0 1.6 0.00 1.02 0.00 34 1008.6
20260507140503 13 191 0.0 1.6 0.00 1.02 0.00 42 1008.7
20260507140003 13 190 0.0 1.6 0.00 1.02 0.08 41 1009.1
20260507135504 13 191 0.0 3.2 0.00 1.02 0.00 46 1008.6
20260507135003 13 191 0.0 8.0 0.00 1.02 0.00 45 1008.6
20260507134503 13 190 0.0 8.0 0.00 1.02 0.08 42 1009.1
20260507133504 13 191 0.0 1.6 0.00 1.02 0.00 43 1008.5
20260507133007 12 190 0.0 1.6 0.00 1.02 0.08 46 1008.9
20260507133003 13 191 0.0 1.6 0.00 1.02 0.00 46 1008.5
20260507132503 13 0 0.0 0.0 0.00 1.02 0.00 51 1008.5
20260507131503 12 190 0.0 0.0 0.00 1.02 0.08 48 1008.9
20260507130503 12 0 0.0 0.0 0.00 1.02 0.00 50 1008.4
20260507130005 12 190 0.0 0.0 0.00 1.02 0.08 58 1009.0
20260507125504 12 0 0.0 0.0 0.00 1.02 0.00 54 1008.5
20260507125003 12 191 0.0 3.2 0.00 1.02 0.00 59 1008.5
20260507124503 11 190 0.0 3.2 0.00 1.02 0.08 52 1009.0
20260507124004 11 0 0.0 0.0 0.00 1.02 0.00 62 1008.6
20260507123503 11 0 0.0 0.0 0.00 1.02 0.00 67 1008.6
20260507123003 11 191 0.0 3.2 0.00 1.02 0.00 68 1008.5
20260507122003 10 191 0.0 8.0 0.00 1.02 0.00 72 1008.6
20260507121504 10 0 0.0 0.0 0.00 1.02 0.00 79 1008.5
20260507121502 10 190 0.0 0.0 0.00 1.02 0.08 79 1009.0
20260507121003 10 0 0.0 0.0 0.00 1.02 0.00 79 1008.5
20260507120503 10 191 0.0 1.6 0.00 1.02 0.00 80 1008.5
20260507120010 9 190 0.0 3.2 0.00 1.02 0.08 81 1009.0
20260507115504 9 0 0.0 0.0 0.00 1.02 0.00 82 1008.4
20260507114502 8 190 0.0 0.0 0.00 1.02 0.08 82 1008.8
20260507113503 8 0 0.0 0.0 0.00 1.02 0.00 82 1008.3
20260507113004 8 0 0.0 0.0 0.00 1.02 0.00 82 1008.2
20260507113002 8 190 0.0 0.0 0.00 1.02 0.08 82 1008.7
20260507112503 8 0 0.0 0.0 0.00 1.02 0.00 82 1008.2
20260507111507 8 190 0.0 0.0 0.00 1.02 0.08 82 1008.5
20260507110059 8 190 0.0 0.0 0.00 1.02 0.08 82 1008.4
20260507104557 8 190 0.0 0.0 0.00 1.02 0.08 82 1008.3
20260507103056 8 190 0.0 0.0 0.00 1.02 0.08 82 1008.0
20260507101616 8 190 0.0 0.0 0.00 1.02 0.08 82 1008.0
20260507100055 8 190 0.0 0.0 0.00 1.02 0.08 82 1007.8
20260507094553 8 190 0.0 0.0 0.00 1.02 0.08 82 1007.6
20260507093057 8 190 0.0 0.0 0.00 1.02 0.08 82 1007.6
20260507091555 8 190 0.0 0.0 0.00 1.02 0.08 82 1007.8
20260507090052 8 190 0.0 0.0 0.00 1.02 0.08 82 1007.9
20260507084550 8 190 0.0 0.0 0.03 1.02 0.08 82 1008.0
20260507083048 8 190 0.0 0.0 0.03 1.02 0.08 82 1008.1
20260507081546 8 190 0.0 0.0 0.03 1.02 0.08 82 1008.3
20260507080046 9 190 0.0 0.0 0.05 1.02 0.08 82 1007.8
20260507074545 9 190 0.0 0.0 0.03 0.99 0.05 82 1007.5
20260507073041 9 190 0.0 0.0 0.05 0.99 0.05 82 1007.9
20260507071540 9 190 0.0 0.0 0.05 0.99 0.05 82 1007.3
20260507070042 10 190 0.0 0.0 0.03 0.97 0.03 82 1007.7
20260507064542 10 190 0.0 0.0 0.03 0.97 0.03 82 1007.3
20260507063037 10 190 0.0 0.0 0.00 0.94 0.00 82 1007.3
20260507061536 10 190 0.0 0.0 0.00 0.94 0.00 82 1006.8
20260507060036 10 190 0.0 0.0 0.00 0.94 0.00 82 1006.9
20260507054530 10 190 0.0 0.0 0.00 0.94 0.00 82 1007.4
20260507053030 10 190 0.0 0.0 0.00 0.94 0.00 82 1007.7
20260507051529 10 190 0.0 0.0 0.00 0.94 0.00 82 1007.6
20260507050035 10 190 0.0 0.0 0.00 0.94 0.00 82 1008.0
20260507044525 10 190 0.0 0.0 0.00 0.94 0.00 82 1007.6
20260507043024 10 190 0.0 0.0 0.00 0.94 0.00 82 1007.8
20260507041537 10 190 0.0 0.0 0.00 0.94 0.00 82 1007.7
20260507040020 10 190 0.0 0.0 0.08 0.94 0.94 82 1007.4
20260507034518 10 190 0.0 0.0 0.13 0.94 0.94 82 1007.6
20260507033016 11 190 0.0 0.0 0.20 0.94 0.94 82 1007.7
20260507031514 11 190 0.0 0.0 0.23 0.94 0.94 81 1007.6
20260507031004 11 0 0.0 0.0 0.15 0.86 0.86 81 1007.2
20260507030004 12 191 0.0 1.6 0.15 0.86 0.86 81 1007.0
20260507030002 11 190 0.0 1.6 0.15 0.86 0.86 81 1007.3
20260507025003 13 191 0.0 4.8 0.13 0.81 0.81 82 1007.0
20260507024504 12 190 0.0 0.0 0.13 0.81 0.81 82 1007.3
20260507024003 13 0 0.0 0.0 0.10 0.79 0.79 82 1006.6
20260507023503 13 0 0.0 0.0 0.08 0.76 0.76 82 1006.8
20260507023004 13 0 0.0 0.0 0.05 0.74 0.74 82 1006.6
20260507022503 13 0 0.0 0.0 0.03 0.71 0.71 82 1006.4
20260507022003 13 0 0.0 0.0 0.03 0.71 0.71 82 1006.4
20260507021503 13 0 0.0 0.0 0.08 0.71 0.71 82 1006.3
20260507021004 13 0 0.0 0.0 0.08 0.71 0.71 82 1006.3
20260507020503 13 0 0.0 0.0 0.08 0.71 0.71 82 1006.2
20260507020004 14 0 0.0 0.0 0.08 0.71 0.71 82 1006.3
20260507015504 14 0 0.0 0.0 0.08 0.71 0.71 82 1006.4
20260507015004 14 0 0.0 0.0 0.05 0.69 0.69 82 1006.4
20260507014510 14 190 0.0 0.0 0.05 0.69 0.69 82 1006.6
20260507014504 14 0 0.0 0.0 0.05 0.69 0.69 82 1006.3
20260507014003 15 0 0.0 0.0 0.05 0.69 0.69 82 1006.2